map of NQN home
Great Circle Mapper logo
NQN - Airport
Location
City:  Neuquén, Neuquén, Argentina
Name:Presidente Perón
ICAO / IATA:SAZN / NQN

Details
Type:Airport (Aerodrome, Airfield)
Use:Public/Civil
Latitude:38°56'56"S (-38.948999)
Longitude:68°09'21"W (-68.155710)
Datum:WGS 1984
Elevation:895 ft (273 m)
Runways:1
Longest:8432 × 147 ft (2570 × 45 m), paved

Time
Time Zone:UTC-3
Local Time:

Weather
METAR:SAZN 020400Z 29011KT CAVOK 19/04 Q1000
TAF:SAZN 012300Z 0200/0224 29015KT 9999 SCT020 BKN100 TX18/0219Z TN11/0210Z
BECMG 0204/0206 34015KT
TEMPO 0207/0212 7000 RADZ BKN035 BKN050
BECMG 0216/0218 29020G30KT 9999 BKN020 BKN100

Related Locations
Nearby:
Farthest:TYN: 12339 mi / 19857 km
Taiyuan [Taiyuan Wusu Intl], Shanxi, CN

Find:

   beyond  
but within

Other Information
Maps:
NOTAMs:
Links:
Sources:

  
flag of Argentina
flag of Neuquén
  

Sectional Chart

Flight Planning
at skyvector.com

Satellite Image

Google Maps Satellite View

 

Copyright © 2004-2014 Karl L. Swartz. All rights reserved.
The Great Circle Mapper name and logo are trademarks of the Great Circle Mapper.
All other trademarks mentioned herein belong to their respective owners.
Please see credits for attibutions and further copyright information.

  Follow gcmap on Facebook Follow gcmap on Twitter

hCard Microformat

Geo Microformat